AKST,Max TemperatureF,Mean TemperatureF,Min TemperatureF,Max Dew PointF,MeanDew PointF,Min DewpointF,Max Humidity, Mean Humidity, Min Humidity, Max Sea Level PressureIn, Mean Sea Level PressureIn, Min Sea Level PressureIn, Max VisibilityMiles, Mean VisibilityMiles, Min VisibilityMiles, Max Wind SpeedMPH, Mean Wind SpeedMPH, Max Gust SpeedMPH,PrecipitationIn, CloudCover, Events, WindDirDegrees
2013-1-1,41,37,33,34,32,24,93,83,59,29.61,29.35,29.21,10,10,7,26,15,38,0.16,8,Rain,119
2013-1-2,37,35,33,31,27,22,82,71,57,29.59,29.47,29.32,10,10,10,22,14,30,0.00,4,,95
2013-1-3,41,38,34,25,21,16,61,51,44,29.60,29.57,29.55,10,10,10,29,8,40,0.00,4,,38
2013-1-4,34,31,28,19,15,12,67,56,49,29.84,29.75,29.61,10,10,10,16,10,,0.00,5,,350
2013-1-5,36,34,32,24,18,16,64,54,48,29.74,29.46,29.32,10,10,10,12,8,,0.00,6,,358
2013-1-6,35,32,30,22,17,15,64,54,46,29.38,29.25,29.06,10,10,9,15,10,16,0.00,5,,353
2013-1-7,37,32,28,20,15,11,64,53,43,29.38,29.19,29.08,10,10,10,20,13,30,0.00,3,,352
2013-1-8,28,22,17,18,14,8,85,73,56,30.01,29.70,29.40,10,10,10,9,4,,0.00,6,,6
2013-1-9,21,16,12,14,10,8,92,77,60,30.10,30.03,29.94,10,10,10,10,8,,0.00,3,,354
2013-1-10,24,20,16,19,14,8,89,78,53,30.16,30.06,29.96,10,10,9,16,6,18,0.00,4,,20
2013-1-11,27,22,17,21,16,11,92,73,55,30.14,30.05,29.95,10,10,8,15,6,22,0.00,6,Snow,11
2013-1-12,44,32,19,34,25,15,96,73,52,30.13,30.01,29.90,10,10,8,31,9,40,0.05,8,Rain,20
2013-1-13,46,40,35,36,33,30,89,70,52,29.88,29.81,29.67,10,9,6,31,19,43,0.42,8,Rain,109
2013-1-14,46,42,36,35,30,17,86,64,46,29.92,29.66,29.50,10,10,9,29,13,45,0.07,8,Rain,115
2013-1-15,34,28,21,15,14,9,72,61,44,30.23,30.15,29.96,10,10,10,9,7,,0.00,4,,345
2013-1-16,30,24,19,20,17,11,100,84,49,30.19,29.85,29.67,10,4,0,14,5,,0.17,8,Fog-Snow,266
2013-1-17,19,16,14,18,14,8,93,88,77,29.95,29.69,29.57,10,4,1,6,1,,0.12,8,Snow,162
2013-1-18,15,8,0,10,0,-6,92,84,66,30.23,30.16,29.97,10,8,1,10,3,,0.00,4,,354
2013-1-19,23,16,10,14,9,4,92,75,48,30.23,30.12,29.94,10,10,10,21,4,29,0.00,7,,24
2013-1-20,27,22,16,20,15,9,92,70,55,29.98,29.90,29.86,10,10,8,20,9,25,0.00,7,,24
2013-1-21,32,22,12,20,15,10,100,86,59,29.91,29.82,29.70,10,9,0,9,4,,0.00,4,Fog,79
2013-1-22,27,24,21,23,21,19,92,86,78,29.72,29.57,29.44,10,10,9,5,2,,0.00,6,,97
2013-1-23,35,29,23,26,23,17,92,72,59,29.43,29.35,29.30,10,10,10,16,7,,0.00,5,,4
2013-1-24,30,28,25,28,17,15,89,68,63,29.49,29.44,29.39,10,10,8,16,12,,0.00,5,,348
2013-1-25,30,16,-2,30,17,-6,100,83,59,29.62,29.41,29.30,10,6,1,10,3,20,0.09,7,Snow,200
2013-1-26,0,-6,-13,-6,-13,-18,83,74,59,29.89,29.77,29.65,10,10,9,6,1,,0.00,0,,88
2013-1-27,0,-8,-15,-15,-18,-22,75,60,43,30.14,30.03,29.90,10,10,10,14,7,20,0.00,0,,44
2013-1-28,5,-3,-11,0,-11,-19,85,64,54,30.18,30.04,29.88,10,8,2,18,5,25,0.00,6,Snow,94
2013-1-29,10,6,3,5,-1,-8,77,71,58,29.88,29.82,29.77,10,8,2,13,6,20,0.00,8,Snow,32
2013-1-30,26,19,12,18,12,5,88,74,55,29.87,29.75,29.65,10,8,2,25,9,33,0.00,7,Snow,360
2013-1-31,30,26,21,28,23,17,100,88,77,29.95,29.85,29.70,10,6,0,18,9,24,0.04,7,Fog-Rain-Snow,350